Location: Newark
(7.0858°N, 171.3717°E)
Time: 07:18:56
(UTC+00:00)

S-56A Canister/Altair - Pass Details

Date: 27 November 2020
Orbit: 633 x 2499 km, 38.9° (Epoch: 27 January)

Event Time Altitude Azimuth Distance (km) Brightness Sun altitude
Rises 04:10:56 0° 215° (SW) 6,094 13.1 27.2°
Reaches altitude 10° 04:15:07 10° 210° (SSW) 5,147 12.8 26.3°
Maximum altitude 04:29:30 50° 139° (SE) 2,839 10.6 23.1°
Drops below altitude 10° 04:41:29 10° 68° (ENE) 4,364 10.9 20.4°
Sets 04:44:40 0° 63° (ENE) 5,137 11.1 19.7°
